| time (UTC) | temp F | wind direction | speed MPH | gust MPH | rain 1hr in | rain 24hr in | rain mn in | humidity % | barometer mb |
| 20260508183030 | 67 | 274 | 15.0 | 23.0 | 0.00 | 0.00 | 0.00 | 29 | 1011.9 |
| 20260508181527 | 67 | 241 | 15.0 | 25.0 | 0.00 | 0.00 | 0.00 | 30 | 1012.1 |
| 20260508180025 | 66 | 279 | 12.0 | 20.0 | 0.00 | 0.00 | 0.00 | 32 | 1012.2 |
| 20260508174528 | 65 | 242 | 12.0 | 21.0 | 0.00 | 0.00 | 0.00 | 33 | 1012.5 |
| 20260508173022 | 65 | 262 | 13.0 | 21.0 | 0.00 | 0.00 | 0.00 | 34 | 1012.3 |
| 20260508171526 | 65 | 278 | 11.0 | 20.0 | 0.00 | 0.00 | 0.00 | 34 | 1012.5 |
| 20260508170017 | 64 | 270 | 11.0 | 18.0 | 0.00 | 0.00 | 0.00 | 34 | 1012.8 |
| 20260508164515 | 64 | 285 | 12.0 | 18.0 | 0.00 | 0.00 | 0.00 | 35 | 1012.8 |
| 20260508163017 | 63 | 281 | 10.0 | 19.0 | 0.00 | 0.00 | 0.00 | 36 | 1012.9 |
| 20260508161514 | 63 | 254 | 11.0 | 19.0 | 0.00 | 0.00 | 0.00 | 36 | 1013.0 |
| 20260508160016 | 63 | 255 | 10.0 | 17.0 | 0.00 | 0.00 | 0.00 | 39 | 1013.0 |
| 20260508154510 | 62 | 219 | 9.0 | 14.0 | 0.00 | 0.00 | 0.00 | 43 | 1013.1 |
| 20260508153007 | 61 | 243 | 11.0 | 17.0 | 0.00 | 0.00 | 0.00 | 44 | 1013.1 |
| 20260508151505 | 61 | 215 | 11.0 | 16.0 | 0.00 | 0.00 | 0.00 | 44 | 1013.2 |
| 20260508150003 | 60 | 224 | 13.0 | 17.0 | 0.00 | 0.00 | 0.00 | 43 | 1013.2 |
| 20260508144600 | 60 | 199 | 11.0 | 16.0 | 0.00 | 0.00 | 0.00 | 45 | 1013.3 |
| 20260508143101 | 59 | 202 | 10.0 | 13.0 | 0.00 | 0.00 | 0.00 | 44 | 1013.3 |
| 20260508141556 | 59 | 223 | 7.0 | 9.0 | 0.00 | 0.00 | 0.00 | 45 | 1013.4 |
| 20260508140059 | 58 | 227 | 3.0 | 6.0 | 0.00 | 0.00 | 0.00 | 45 | 1013.3 |
| 20260508134554 | 56 | 217 | 4.0 | 7.0 | 0.00 | 0.00 | 0.00 | 46 | 1013.4 |
| 20260508133055 | 55 | 217 | 4.0 | 6.0 | 0.00 | 0.00 | 0.00 | 48 | 1013.6 |
| 20260508131547 | 53 | 218 | 3.0 | 6.0 | 0.00 | 0.00 | 0.00 | 48 | 1013.5 |
| 20260508130059 | 51 | 236 | 3.0 | 5.0 | 0.00 | 0.00 | 0.00 | 48 | 1013.6 |
| 20260508124549 | 49 | 235 | 1.0 | 3.0 | 0.00 | 0.00 | 0.00 | 51 | 1013.7 |
| 20260508123053 | 49 | 235 | 0.0 | 1.0 | 0.00 | 0.00 | 0.00 | 49 | 1013.6 |
| 20260508121544 | 46 | 235 | 2.0 | 3.0 | 0.00 | 0.00 | 0.00 | 52 | 1013.7 |
| 20260508120042 | 46 | 235 | 2.0 | 5.0 | 0.00 | 0.00 | 0.00 | 53 | 1013.7 |
| 20260508114547 | 50 | 173 | 1.0 | 2.0 | 0.00 | 0.00 | 0.00 | 46 | 1013.8 |
| 20260508113039 | 50 | 173 | 0.0 | 4.0 | 0.00 | 0.00 | 0.00 | 47 | 1013.8 |
| 20260508111539 | 49 | 186 | 1.0 | 7.0 | 0.00 | 0.00 | 0.00 | 49 | 1013.7 |
| 20260508110041 | 47 | 249 | 3.0 | 5.0 | 0.00 | 0.00 | 0.00 | 52 | 1013.8 |
| 20260508104543 | 48 | 249 | 3.0 | 5.0 | 0.00 | 0.00 | 0.00 | 50 | 1014.0 |
| 20260508103043 | 51 | 249 | 2.0 | 4.0 | 0.00 | 0.00 | 0.00 | 48 | 1014.0 |
| 20260508101544 | 51 | 249 | 0.0 | 2.0 | 0.00 | 0.00 | 0.00 | 49 | 1013.9 |
| 20260508100035 | 49 | 249 | 3.0 | 4.0 | 0.00 | 0.00 | 0.00 | 53 | 1014.0 |
| 20260508094544 | 48 | 249 | 2.0 | 5.0 | 0.00 | 0.00 | 0.00 | 53 | 1013.9 |
| 20260508093034 | 49 | 249 | 2.0 | 4.0 | 0.00 | 0.00 | 0.00 | 53 | 1014.0 |
| 20260508091547 | 48 | 249 | 3.0 | 5.0 | 0.00 | 0.00 | 0.00 | 55 | 1014.0 |
| 20260508090051 | 48 | 249 | 2.0 | 5.0 | 0.00 | 0.00 | 0.00 | 55 | 1014.2 |
| 20260508084534 | 48 | 249 | 3.0 | 5.0 | 0.00 | 0.00 | 0.00 | 55 | 1014.1 |
| 20260508083033 | 48 | 249 | 3.0 | 5.0 | 0.00 | 0.00 | 0.00 | 55 | 1014.2 |
| 20260508081539 | 48 | 249 | 4.0 | 5.0 | 0.00 | 0.00 | 0.00 | 56 | 1014.2 |
| 20260508080041 | 48 | 249 | 3.0 | 5.0 | 0.00 | 0.00 | 0.00 | 56 | 1014.2 |
| 20260508074532 | 49 | 249 | 3.0 | 5.0 | 0.00 | 0.00 | 0.00 | 54 | 1014.4 |
| 20260508073035 | 49 | 249 | 3.0 | 7.0 | 0.00 | 0.00 | 0.00 | 55 | 1014.3 |
| 20260508071534 | 48 | 249 | 3.0 | 5.0 | 0.00 | 0.00 | 0.00 | 53 | 1014.3 |
| 20260508070041 | 51 | 250 | 5.0 | 10.0 | 0.00 | 0.00 | 0.00 | 52 | 1014.3 |
| 20260508064534 | 52 | 275 | 8.0 | 10.0 | 0.00 | 0.00 | 0.00 | 51 | 1014.3 |
| 20260508063028 | 50 | 213 | 3.0 | 6.0 | 0.00 | 0.00 | 0.00 | 50 | 1014.2 |
| 20260508061524 | 50 | 206 | 4.0 | 9.0 | 0.00 | 0.00 | 0.00 | 47 | 1014.4 |
| 20260508060025 | 52 | 283 | 5.0 | 9.0 | 0.00 | 0.00 | 0.00 | 45 | 1014.4 |
| 20260508054528 | 52 | 277 | 7.0 | 9.0 | 0.00 | 0.00 | 0.00 | 43 | 1014.3 |
| 20260508053020 | 53 | 245 | 2.0 | 4.0 | 0.00 | 0.00 | 0.00 | 42 | 1014.2 |
| 20260508051519 | 53 | 246 | 1.0 | 7.0 | 0.00 | 0.00 | 0.00 | 44 | 1014.1 |
| 20260508050022 | 54 | 337 | 2.0 | 4.0 | 0.00 | 0.00 | 0.00 | 42 | 1014.0 |
| 20260508044519 | 55 | 337 | 0.0 | 4.0 | 0.00 | 0.00 | 0.00 | 40 | 1014.1 |
| 20260508043018 | 56 | 337 | 2.0 | 4.0 | 0.00 | 0.00 | 0.00 | 38 | 1014.1 |
| 20260508041516 | 58 | 337 | 2.0 | 4.0 | 0.00 | 0.00 | 0.00 | 32 | 1013.9 |
| 20260508040028 | 58 | 337 | 3.0 | 4.0 | 0.00 | 0.00 | 0.00 | 33 | 1013.9 |
| 20260508034519 | 58 | 337 | 2.0 | 4.0 | 0.00 | 0.00 | 0.00 | 33 | 1013.9 |
| 20260508033017 | 59 | 337 | 2.0 | 6.0 | 0.00 | 0.00 | 0.00 | 32 | 1013.9 |
| 20260508031516 | 59 | 310 | 3.0 | 6.0 | 0.00 | 0.00 | 0.00 | 33 | 1013.7 |
| 20260508030024 | 59 | 326 | 3.0 | 5.0 | 0.00 | 0.00 | 0.00 | 33 | 1013.7 |
| 20260508024524 | 58 | 314 | 4.0 | 6.0 | 0.00 | 0.00 | 0.00 | 35 | 1013.5 |
| 20260508023020 | 58 | 306 | 3.0 | 5.0 | 0.00 | 0.00 | 0.00 | 36 | 1013.5 |
| 20260508021519 | 58 | 306 | 3.0 | 5.0 | 0.00 | 0.00 | 0.00 | 37 | 1013.3 |
| 20260508020016 | 59 | 308 | 3.0 | 5.0 | 0.00 | 0.00 | 0.00 | 37 | 1013.2 |
| 20260508014521 | 61 | 348 | 5.0 | 12.0 | 0.00 | 0.00 | 0.00 | 35 | 1013.1 |
| 20260508013015 | 62 | 325 | 8.0 | 11.0 | 0.00 | 0.00 | 0.00 | 34 | 1013.0 |
| 20260508011515 | 63 | 333 | 7.0 | 11.0 | 0.00 | 0.00 | 0.00 | 34 | 1013.0 |
| 20260508010014 | 63 | 335 | 8.0 | 16.0 | 0.00 | 0.00 | 0.00 | 33 | 1012.7 |
| 20260508004515 | 64 | 331 | 12.0 | 17.0 | 0.00 | 0.00 | 0.00 | 33 | 1012.7 |
| 20260508003014 | 62 | 342 | 12.0 | 17.0 | 0.00 | 0.00 | 0.00 | 34 | 1012.8 |
| 20260508001532 | 64 | 317 | 10.0 | 18.0 | 0.00 | 0.00 | 0.00 | 31 | 1012.8 |
| 20260508000014 | 65 | 294 | 11.0 | 20.0 | 0.00 | 0.00 | 0.00 | 29 | 1012.8 |
| 20260507234512 | 65 | 324 | 15.0 | 23.0 | 0.00 | 0.00 | 0.00 | 29 | 1012.6 |
| 20260507233021 | 64 | 332 | 12.0 | 19.0 | 0.00 | 0.00 | 0.00 | 31 | 1012.7 |
| 20260507231513 | 65 | 321 | 9.0 | 18.0 | 0.00 | 0.00 | 0.00 | 33 | 1012.7 |
| 20260507230023 | 64 | 315 | 16.0 | 21.0 | 0.00 | 0.00 | 0.00 | 30 | 1012.8 |
| 20260507224521 | 63 | 336 | 12.0 | 20.0 | 0.00 | 0.00 | 0.00 | 31 | 1012.7 |
| 20260507223011 | 64 | 323 | 10.0 | 19.0 | 0.00 | 0.00 | 0.00 | 32 | 1012.8 |
| 20260507221518 | 63 | 305 | 9.0 | 18.0 | 0.00 | 0.00 | 0.00 | 34 | 1012.9 |
| 20260507220009 | 64 | 303 | 14.0 | 19.0 | 0.00 | 0.00 | 0.00 | 33 | 1012.9 |
| 20260507214508 | 63 | 291 | 14.0 | 22.0 | 0.00 | 0.00 | 0.00 | 35 | 1012.9 |
| 20260507213006 | 63 | 282 | 10.0 | 21.0 | 0.00 | 0.00 | 0.00 | 36 | 1013.2 |
| 20260507211516 | 62 | 284 | 17.0 | 22.0 | 0.00 | 0.00 | 0.00 | 38 | 1013.4 |
| 20260507210007 | 62 | 296 | 12.0 | 24.0 | 0.00 | 0.00 | 0.00 | 38 | 1013.3 |
| 20260507204506 | 62 | 331 | 13.0 | 24.0 | 0.00 | 0.00 | 0.00 | 37 | 1013.4 |
| 20260507203006 | 62 | 300 | 11.0 | 21.0 | 0.00 | 0.00 | 0.00 | 38 | 1013.3 |
| 20260507201505 | 62 | 299 | 12.0 | 23.0 | 0.00 | 0.00 | 0.00 | 36 | 1013.4 |
| 20260507200005 | 62 | 304 | 15.0 | 23.0 | 0.00 | 0.00 | 0.00 | 36 | 1013.3 |
| 20260507194505 | 61 | 307 | 16.0 | 24.0 | 0.00 | 0.00 | 0.00 | 38 | 1013.2 |
| 20260507193005 | 62 | 294 | 13.0 | 21.0 | 0.00 | 0.00 | 0.00 | 37 | 1013.2 |
| 20260507191504 | 62 | 288 | 15.0 | 21.0 | 0.00 | 0.00 | 0.00 | 37 | 1013.2 |
| 20260507190005 | 62 | 284 | 13.0 | 23.0 | 0.00 | 0.00 | 0.00 | 38 | 1013.2 |
| 20260507184501 | 61 | 314 | 11.0 | 22.0 | 0.00 | 0.00 | 0.00 | 40 | 1013.3 |